Regional Weather Roundup
Issued by NWS

Home | Current Version | Previous Version | Text Only | Print | Product List | Glossary On
Versions: 1 2 3 4 5 6 7 8 9 10 11 12 13 14 15 16 17 18 19 20 21 22 23 24 25 26 27 28 29 30 31 32 33 34 35 36 37 38 39 40 41 42 43 44 45 46 47 48 49 50
000
ASUS45 KABQ 200910
RWRNM
WEATHER ROUNDUP FOR NEW MEXICO
NATIONAL WEATHER SERVICE ALBUQUERQUE NM
300 AM MDT MON OCT 20 2014

NOTE: "FAIR" MEANS FEW OR NO CLOUDS BELOW 12,000 FEET AGL WITH NO
       SIGNIFICANT WEATHER OR OBSTRUCTIONS TO VISION.

      THIS PRODUCT IS RELEASED AS TWO VERSIONS.  ONE VERSION NEAR
      THE TOP OF THE HOUR CONTAINING PRELIMINARY DATA FROM ALBUQUERQUE
      AND OTHER STATIONS.  A FINAL VERSION WITH ADDITIONAL DATA IS
      ISSUED ABOUT 10 MINUTES AFTER THE HOUR.

NMZ501-503-504-510>518-201000-
NORTHWEST PLATEAU/NORTHCENTRAL MOUNTAINS

CITY           SKY/WX    TMP DP  RH WIND       PRES   REMARKS
FARMINGTON     CLEAR     49  43  80 E5        30.17R
LOS ALAMOS     CLEAR     49  37  63 CALM      30.25S
SANTA FE       CLOUDY    47  39  74 E5        30.20S
TAOS           CLOUDY    41  36  81 N7        30.26S
ANGEL FIRE     FOG       32  31  96 CALM      30.34S VSB 1/4

$$
NMZ402-403-502-505>509-201000-
WESTCENTRAL MOUNTAINS/SOUTHWEST MOUNTAINS

CITY           SKY/WX    TMP DP  RH WIND       PRES   REMARKS
GALLUP         PTCLDY    42  40  92 SW3       30.21R
GRANTS         PTCLDY    37  34  87 CALM      30.23S
SILVER CITY    MOCLDY    54  48  82 SE9       30.15S

$$
NMZ407-409-411-412-201000-
SOUTHERN DESERTS

CITY           SKY/WX    TMP DP  RH WIND       PRES   REMARKS
LORDSBURG      FAIR      55  48  76 MISG      30.06F
DEMING         PTCLDY    54  50  86 NE9       30.10F
LAS CRUCES     MOCLDY    56  53  88 N5        30.10F
HOLLOMAN AFB   MOCLDY    56  56 100 NE10      30.13F
T OR C         CLOUDY    54  52  93 N3        30.15S

$$
NMZ519>523-201000-
CENTRAL VALLEYS/CENTRAL HIGHLANDS

CITY           SKY/WX    TMP DP  RH WIND       PRES   REMARKS
ALBUQUERQUE    PTCLDY    52  41  66 S8        30.18R
DOUBLE EAGLE   CLOUDY    44  38  77 CALM      30.20R
MORIARTY ARPT  PTSUNNY   37  34  90 N5        30.23S WCI  33
CLINES CORNERS PTCLDY    47  40  76 CALM      30.23R
BELEN          NOT AVBL
SOCORRO        MOCLDY    52  50  93 W5        30.16F

$$
NMZ524>526-539-540-201000-
SOUTHCENTRAL MOUNTAINS

CITY           SKY/WX    TMP DP  RH WIND       PRES   REMARKS
RUIDOSO        NOT AVBL

$$
NMZ527>531-201000-
NORTHEAST HIGHLANDS/NORTHEAST PLAINS

CITY           SKY/WX    TMP DP  RH WIND       PRES   REMARKS
LAS VEGAS      PTCLDY    42  37  82 W3        30.24S
RATON          CLEAR     43  36  76 N9        30.20S
CLAYTON        CLEAR     53  42  66 N6        30.13S

$$
NMZ532>537-201000-
EASTCENTRAL PLAINS

CITY           SKY/WX    TMP DP  RH WIND       PRES   REMARKS
TUCUMCARI      CLEAR     52  48  86 SW7       30.10S
CANNON AFB     PTCLDY    55  54  94 NW5       30.13S
CLOVIS AIRPORT MOCLDY    52  48  87 W7        30.14F

$$
NMZ028-029-538-201000-
SOUTHEAST PLAINS

CITY           SKY/WX    TMP DP  RH WIND       PRES   REMARKS
ROSWELL        MOCLDY    56  51  84 N5        30.10R
CARLSBAD       CLOUDY    63  58  83 CALM      30.07R
HOBBS          MOCLDY    55  55 100 CALM      30.11R


$$



USA.gov is the U.S. government's official web portal to all federal, state and local government web resources and services.